Flag for Spain Weather past 2 weeks in Bilbao, Spain

Now
77 °F

Passing clouds.


Feels Like: 79 °F
Forecast: 60 / 76 °F
Wind: 9 mph from East

Location: Bilbao / Sondica

Current Time: Sep 21, 2014 at 6:46:49 PM

Latest Report: Sep 21, 2014 at 6:00 PM


Visibility: N/A

Pressure: 30.07 "Hg

Humidity: 65%

Dew point: 64 °F

Location of BilbaoLocation

Historic Weather in Bilbao — Graph

°F

Bilbao temperature yesterday

Maximum temperature yesterday: 93 °F (at 2:30 PM)
Minimum temperature yesterday: 64 °F (at 11:00 PM)
Average temperature yesterday: 73 °F

Past Weeks' High & Low Weather Summary

 TemperatureHumidityPressure
High93 °F (Sep 10, 2:30 PM)100% (Sep 7, 6:30 AM)30.12 "Hg (Sep 7, 6:30 AM)
Low57 °F (Sep 13, 8:00 AM)22% (Sep 18, 4:30 PM)29.56 "Hg (Sep 16, 6:30 PM)
Average75 °F67%29.89 "Hg
* Reported Sep 6 6:00 PM — Sep 21 6:00 PM, Bilbao, Weather by CustomWeather, © 2014

Note: Actual official high and low records may vary slightly from our data, if they occured in-between our weather recording intervals... More about our weather records

Advertising

Bilbao weather history for previous 24 hours

 ConditionsComfort  
Time TempWeatherWind HumidityBarometerVisibility
6:00 PM
Sep 21
77 °FPassing clouds.9 mph65%30.07 "HgN/A
5:30 PM79 °FPassing clouds.9 mph58%30.07 "HgN/A
5:00 PM79 °FScattered clouds.6 mph58%30.09 "HgN/A
4:30 PM79 °FScattered clouds.10 mph58%30.09 "HgN/A
4:00 PM79 °FScattered clouds.7 mph61%30.09 "HgN/A
3:30 PM77 °FScattered clouds.8 mph65%30.09 "HgN/A
3:00 PM77 °FScattered clouds.8 mph69%30.09 "HgN/A
2:30 PM77 °FScattered clouds.8 mph69%30.09 "HgN/A
2:00 PM79 °FScattered clouds.1 mph61%30.09 "HgN/A
1:30 PM79 °FSunny.1 mph58%30.12 "Hg10 mi
1:00 PM77 °FSunny.No wind61%30.12 "Hg10 mi
12:30 PM75 °FSunny.No wind65%30.12 "Hg10 mi
12:00 PM75 °FSunny.No wind65%30.12 "Hg10 mi
11:30 AM72 °FSunny.1 mph73%30.12 "Hg10 mi
11:00 AM70 °FSunny.1 mph78%30.12 "Hg10 mi
10:30 AM68 °FPassing clouds.5 mph83%30.12 "HgN/A
10:00 AM64 °FSunny.2 mph88%30.12 "Hg10 mi
9:30 AM63 °FSunny.2 mph94%30.12 "Hg10 mi
9:00 AM61 °FSunny.3 mph94%30.12 "Hg10 mi
8:30 AM61 °FClear.2 mph94%30.12 "Hg10 mi
8:00 AM59 °FClear.2 mph100%30.12 "Hg10 mi
7:30 AM61 °FClear.2 mph100%30.09 "Hg10 mi
7:00 AM61 °FClear.No wind94%30.09 "Hg10 mi
6:30 AM61 °FClear.1 mph100%30.09 "Hg10 mi
6:00 AM61 °FClear.2 mph100%30.09 "Hg10 mi
5:30 AM63 °FClear.2 mph94%30.09 "Hg10 mi
5:00 AM63 °FClear.2 mph94%30.09 "Hg10 mi
11:30 PM
Sep 20
64 °FClear.2 mph100%30.09 "Hg10 mi
11:00 PM64 °FClear.3 mph94%30.09 "Hg10 mi
10:30 PM66 °FClear.1 mph88%30.09 "Hg10 mi
10:00 PM66 °FClear.1 mph88%30.07 "Hg10 mi
9:30 PM66 °FClear.1 mph94%30.07 "Hg10 mi
9:00 PM70 °FPassing clouds.2 mph88%30.04 "HgN/A
8:30 PM70 °FPassing clouds.No wind88%30.04 "HgN/A
8:00 PM73 °FPassing clouds.No wind78%30.04 "HgN/A
7:30 PM75 °FScattered clouds.No wind69%30.01 "HgN/A
Weather by CustomWeather, © 2014

See weather overviewHow to use our weather pages